Location: Unspecified
(51.5147°N, 7.4673°E)
Time: 06:43:37
(UTC+01:00)

A-11 Canister half - Pass Details

Date: 21 February 2026
Orbit: 1524 x 1683 km, 47.3° (Epoch: 14 March)

Event Time Altitude Azimuth Distance (km) Brightness Sun altitude
Rises 19:02:31 0° 265° (W) 4,703 13.8 -11.0°
Reaches altitude 10° 19:05:35 10° 264° (W) 3,708 12.6 -11.5°
Maximum altitude 19:14:49 69° 183° (S) 1,614 9.1 -12.9°
Enters shadow 19:22:26 17° 105° (ESE) 3,203 10.1 -14.1°
